Regional Weather Roundup
Issued by NWS

Home | Current Version | Previous Version | Graphics & Text | Print | Product List | Glossary On
Versions: 1 2 3 4 5 6 7 8 9 10 11 12 13 14 15 16 17 18 19 20 21 22 23 24 25 26 27 28 29 30 31 32 33 34 35 36 37 38 39 40 41 42 43 44 45 46 47 48 49 50
000
ASUS45 KBOU 031207
RWRCO

WEATHER ROUNDUP FOR COLORADO
NATIONAL WEATHER SERVICE DENVER/BOULDER CO
600 AM MDT THU SEP 03 2015

NOTE: "FAIR" INDICATES FEW OR NO CLOUDS BELOW 12000 FEET WITH NO
SIGNIFICANT WEATHER AND/OR OBSTRUCTIONS TO VISIBILITY.

COZ001>005-013-030-031-031300-
...NORTHWEST COLORADO...

CITY           SKY/WX    TMP DP  RH WIND       PRES   REMARKS
CRAIG          PTCLDY    46  43  89 CALM      30.12F
HAYDEN         NOT AVBL
MEEKER         PTCLDY    50  47  89 NE3       30.14S
MOUNT WERNER   NOT AVBL
STEAMBOAT SPGS MOCLDY    48  45  87 E5        30.18S
WALDEN         MOCLDY    43  37  81 SE7       30.25S
$$

COZ006>008-011-031300-
...WEST CENTRAL VALLEYS...

CITY           SKY/WX    TMP DP  RH WIND       PRES   REMARKS
GRAND JUNCTION MOCLDY    69  49  48 SE5       30.04R
MONTROSE       CLOUDY    65  49  56 SE6       30.14S
EAGLE          MOCLDY    52  46  82 SE3       30.22R
RIFLE          MOCLDY    57  51  80 CALM      30.11R
DELTA          CLOUDY    66  50  56 E5        30.09F
NUCLA          LGT RAIN  63  52  67 S5        30.20R
$$

COZ017>023-064>068-031300-
...SOUTHWEST COLORADO...

CITY           SKY/WX    TMP DP  RH WIND       PRES   REMARKS
DURANGO        CLOUDY    59  50  72 CALM      30.22S
CORTEZ         CLOUDY    61  58  90 CALM      30.18S
PAGOSA SPRINGS CLOUDY    55  46  73 CALM      30.28F
TELLURIDE      TSTM      52  47  82 CALM      30.39R
WOLF CREEK PAS NOT AVBL
$$

COZ009-010-012-014-032>034-037-058>063-031300-
...CENTRAL COLORADO...

CITY           SKY/WX    TMP DP  RH WIND       PRES   REMARKS
ASPEN          MOCLDY    51  44  77 S5        30.25S
BUENA VISTA    CLOUDY    52  43  71 CALM      30.28S
COPPER MTN     MOCLDY    48  36  61 SW5       30.54S
BERTHOUD PASS  CLOUDY    43  30  61 NW15G21   30.58F
COTTONWOOD PAS CLOUDY    55  37  50 CALM      30.39S
GUNNISON       CLOUDY    48  45  87 CALM      30.31F
KREMMLING      MOCLDY    50  45  81 CALM      30.26R
LEADVILLE      MOCLDY    42  40  92 NE7       30.39S
MONARCH PASS   MOCLDY    43  36  75 W17       30.62S
SALIDA         CLOUDY    58  43  57 NW7       30.31S
SUNLIGHT       MOCLDY    50  43  76 CALM      30.47S
WILKERSON PASS CLOUDY    50  36  57 W3        30.51S
$$

COZ069>075-031300-
...SAN LUIS VALLEY/SANGRE DE CRISTO MOUNTAINS...

CITY           SKY/WX    TMP DP  RH WIND       PRES   REMARKS
ALAMOSA        MOCLDY    52  48  86 NW3       30.26S
LA VETA PASS   PTCLDY    46  37  71 S14G22    30.37F
SAGUACHE       CLOUDY    50  43  76 N7        30.29S
$$

COZ035-036-038>040-031300-
...NORTHERN COLORADO FRONT RANGE...

CITY           SKY/WX    TMP DP  RH WIND       PRES   REMARKS
DENVER INTL AP MOCLDY    66  43  43 SW7       30.03R
DMNS CITY PARK   N/A     65  47  52 SE10      30.03R
AURORA         MOCLDY    66  42  42 S6        30.05S
FRONT RANGE AP NOT AVBL
ERIE MUNI ARPT MOCLDY    60  48  66 CALM      30.01R
BOULDER MUN AP MOCLDY    64  45  48 CALM      30.01S
CENTENNIAL     LGT RAIN  64  46  52 SE5       30.06R
BROOMFIELD     MOCLDY    68  41  37 CALM      30.04S
FORT COLLINS   MOCLDY    61  45  55 SE5       30.01S
LONGMONT       MOCLDY    61  49  65 CALM      30.02S
$$

COZ041-046-047-076>085-087-088-031300-
...PIKES PEAK/PALMER DIVIDE AND SOUTHERN FOOTHILLS...

CITY           SKY/WX    TMP DP  RH WIND       PRES   REMARKS
COLO. SPRINGS  MOCLDY    70  41  34 N12       30.07F
A. F. ACADEMY  CLOUDY    65  40  41 N9        30.10S
ELLICOTT       MOCLDY   N/A N/A N/A N7        30.06S
FALCON         MOCLDY    68  38  33 MISG      30.13F
FORT CARSON    CLOUDY    64  44  48 NW7       30.04S
LIMON          MOCLDY    61  44  53 N7        30.02S
MONUMENT HILL  CLOUDY    59  41  51 W7        30.16R
TRINIDAD       PTCLDY    59  44  57 NW12      30.07S
$$

COZ042>045-048>051-090-091-031300-
...NORTHEAST COLORADO...

CITY           SKY/WX    TMP DP  RH WIND       PRES   REMARKS
GREELEY ARPT   PTCLDY    59  48  67 W5        30.00R
AKRON          PTCLDY    64  42  44 W10       29.96F
BURLINGTON     CLEAR     59  52  77 W7        29.93R
WRAY           CLOUDY    55  49  78 W6        29.89S
STERLING       PTCLDY    55  52  88 S5        29.93R
HOLYOKE        CLEAR     63  52  67 W9        29.89S
FORT MORGAN    PTCLDY    59  47  66 W7        29.96S
$$

COZ086-089-092>099-031300-
...SOUTHEAST COLORADO...

CITY           SKY/WX    TMP DP  RH WIND       PRES   REMARKS
PUEBLO         MOCLDY    66  44  45 W5        29.97R
LA JUNTA       MOCLDY    69  46  43 W7        29.93S
LAMAR          CLOUDY    64  55  72 CALM      29.89S
SPRINGFIELD      N/A     64  52  64 SW8       29.95S
$$



USA.gov is the U.S. government's official web portal to all federal, state and local government web resources and services.